Previsão horária em Abaclia

Hoje, 17 Abril, Sábado

Tempo Temperatura Precipitação Vento Pressão Humidade
00:00 +6°C° 0 mm 2 m/s 758 mmHg 63%
01:00 +6°C° 0 mm 1 m/s 758 mmHg 65%
02:00 +6°C° 0 mm 1 m/s 758 mmHg 67%
03:00 +6°C° 0 mm 1 m/s 758 mmHg 68%
04:00 +5°C° 0 mm 1 m/s 758 mmHg 70%
05:00 +4°C° 0 mm 0 m/s 758 mmHg 71%
06:00 +7°C° 0 mm 1 m/s 759 mmHg 66%
07:00 +8°C° 0 mm 1 m/s 759 mmHg 61%
08:00 +9°C° 0 mm 1 m/s 759 mmHg 56%
09:00 +10°C° 0 mm 2 m/s 759 mmHg 51%
10:00 +12°C° 0 mm 2 m/s 759 mmHg 46%
11:00 +13°C° 0 mm 3 m/s 759 mmHg 41%
12:00 +13°C° 0 mm 3 m/s 759 mmHg 40%
13:00 +15°C° 0 mm 2 m/s 758 mmHg 38%
14:00 +16°C° 0 mm 2 m/s 758 mmHg 36%
15:00 +16°C° 0 mm 2 m/s 758 mmHg 37%
16:00 +15°C° 0 mm 2 m/s 758 mmHg 38%
17:00 +15°C° 0 mm 2 m/s 758 mmHg 38%
18:00 +13°C° 0 mm 3 m/s 758 mmHg 45%
19:00 +11°C° 0 mm 3 m/s 758 mmHg 52%
20:00 +8°C° 0 mm 4 m/s 758 mmHg 59%
21:00 +9°C° 0 mm 3 m/s 758 mmHg 60%
22:00 +9°C° 0 mm 2 m/s 758 mmHg 61%
23:00 +8°C° 0 mm 2 m/s 758 mmHg 63%

Amanhã, 18 Abril, Domingo

Tempo Temperatura Precipitação Vento Pressão Humidade
00:00 +9°C° 0 mm 1 m/s 758 mmHg 64%
01:00 +9°C° 0 mm 1 m/s 758 mmHg 66%
02:00 +9°C° 0 mm 1 m/s 758 mmHg 67%
03:00 +8°C° 0 mm 1 m/s 758 mmHg 69%
04:00 +8°C° 0 mm 1 m/s 758 mmHg 71%
05:00 +7°C° 0 mm 1 m/s 758 mmHg 73%
06:00 +8°C° 0 mm 1 m/s 758 mmHg 68%
07:00 +10°C° 0 mm 1 m/s 758 mmHg 63%
08:00 +10°C° 0 mm 2 m/s 758 mmHg 58%
09:00 +12°C° 0 mm 2 m/s 758 mmHg 52%
10:00 +13°C° 0 mm 2 m/s 757 mmHg 46%
11:00 +13°C° 0 mm 3 m/s 757 mmHg 39%
12:00 +14°C° 0 mm 3 m/s 757 mmHg 39%
13:00 +16°C° 0 mm 3 m/s 756 mmHg 38%
14:00 +16°C° 0 mm 3 m/s 756 mmHg 38%
15:00 +14°C° 0 mm 3 m/s 756 mmHg 44%
16:00 +13°C° 0 mm 4 m/s 756 mmHg 50%
17:00 +12°C° 0 mm 4 m/s 756 mmHg 56%
18:00 +11°C° 0 mm 3 m/s 756 mmHg 58%
19:00 +12°C° 0 mm 2 m/s 757 mmHg 61%
20:00 +11°C° 0 mm 1 m/s 757 mmHg 63%
21:00 +11°C° 0 mm 1 m/s 757 mmHg 63%
22:00 +11°C° 0 mm 1 m/s 756 mmHg 63%
23:00 +10°C° 0 mm 0 m/s 756 mmHg 63%

Depois de amanhã, 19 Abril, Segunda-feira

Tempo Temperatura Precipitação Vento Pressão Humidade
00:00 +11°C° 0 mm 1 m/s 756 mmHg 64%
01:00 +11°C° 0 mm 1 m/s 756 mmHg 65%
02:00 +11°C° 0 mm 1 m/s 756 mmHg 66%
03:00 +11°C° 0 mm 1 m/s 756 mmHg 67%
04:00 +10°C° 0 mm 2 m/s 755 mmHg 69%
05:00 +10°C° 0 mm 2 m/s 755 mmHg 71%
06:00 +10°C° 0 mm 2 m/s 755 mmHg 70%
07:00 +10°C° 0 mm 3 m/s 755 mmHg 70%
08:00 +10°C° 0 mm 3 m/s 755 mmHg 70%
09:00 +11°C° 0 mm 3 m/s 755 mmHg 70%
10:00 +11°C° 0 mm 3 m/s 755 mmHg 70%
11:00 +11°C° 0 mm 4 m/s 755 mmHg 70%
12:00 +11°C° 0 mm 4 m/s 754 mmHg 68%
13:00 +12°C° 0 mm 4 m/s 754 mmHg 65%
14:00 +12°C° 0 mm 4 m/s 753 mmHg 62%
15:00 +12°C° 0 mm 4 m/s 753 mmHg 64%
16:00 +12°C° 0 mm 4 m/s 752 mmHg 65%
17:00 +12°C° 0 mm 4 m/s 752 mmHg 66%
18:00 +12°C° 0 mm 4 m/s 751 mmHg 68%
19:00 +11°C° 0 mm 4 m/s 751 mmHg 70%
20:00 +11°C° 0 mm 4 m/s 751 mmHg 72%
21:00 +10°C° 0.4 mm 5 m/s 750 mmHg 75%
22:00 +9°C° 0.4 mm 6 m/s 749 mmHg 78%
23:00 +9°C° 0.4 mm 7 m/s 749 mmHg 81%

20 Abril, Terça-feira

Tempo Temperatura Precipitação Vento Pressão Humidade
00:00 +8°C° 2.9 mm 7 m/s 748 mmHg 85%
01:00 +8°C° 2.9 mm 7 m/s 748 mmHg 89%
02:00 +6°C° 2.9 mm 8 m/s 747 mmHg 92%
03:00 +6°C° 2.7 mm 8 m/s 747 mmHg 91%
04:00 +6°C° 2.7 mm 8 m/s 746 mmHg 91%
05:00 +5°C° 2.7 mm 8 m/s 746 mmHg 90%
06:00 +5°C° 0.9 mm 9 m/s 746 mmHg 86%
07:00 +6°C° 0.9 mm 9 m/s 746 mmHg 82%
08:00 +6°C° 0.9 mm 9 m/s 746 mmHg 78%
09:00 +7°C° 0.1 mm 9 m/s 747 mmHg 74%
10:00 +7°C° 0.1 mm 9 m/s 747 mmHg 71%
11:00 +8°C° 0.1 mm 9 m/s 747 mmHg 68%
12:00 +10°C° 0 mm 9 m/s 748 mmHg 65%
13:00 +11°C° 0 mm 9 m/s 748 mmHg 63%
14:00 +11°C° 0 mm 8 m/s 749 mmHg 60%
15:00 +11°C° 0 mm 7 m/s 749 mmHg 59%
16:00 +11°C° 0 mm 7 m/s 749 mmHg 59%
17:00 +13°C° 0 mm 6 m/s 750 mmHg 58%
18:00 +10°C° 0 mm 5 m/s 750 mmHg 62%
19:00 +10°C° 0 mm 4 m/s 751 mmHg 66%
20:00 +9°C° 0 mm 3 m/s 752 mmHg 71%
21:00 +9°C° 0 mm 3 m/s 752 mmHg 72%
22:00 +9°C° 0 mm 3 m/s 752 mmHg 73%
23:00 +9°C° 0 mm 3 m/s 753 mmHg 74%

21 Abril, Quarta-feira

Tempo Temperatura Precipitação Vento Pressão Humidade
00:00 +8°C° 0 mm 3 m/s 753 mmHg 74%
01:00 +8°C° 0 mm 2 m/s 753 mmHg 74%
02:00 +8°C° 0 mm 2 m/s 753 mmHg 74%
03:00 +8°C° 0 mm 2 m/s 753 mmHg 76%
04:00 +8°C° 0 mm 1 m/s 753 mmHg 78%
05:00 +8°C° 0 mm 1 m/s 754 mmHg 79%
06:00 +9°C° 0 mm 1 m/s 754 mmHg 74%
07:00 +10°C° 0 mm 2 m/s 754 mmHg 69%
08:00 +12°C° 0 mm 2 m/s 755 mmHg 64%
09:00 +13°C° 0 mm 2 m/s 755 mmHg 60%
10:00 +14°C° 0 mm 3 m/s 755 mmHg 55%
11:00 +16°C° 0 mm 3 m/s 755 mmHg 51%
12:00 +15°C° 0 mm 4 m/s 755 mmHg 48%
13:00 +17°C° 0 mm 4 m/s 755 mmHg 45%
14:00 +18°C° 0 mm 4 m/s 755 mmHg 42%
15:00 +17°C° 0 mm 4 m/s 755 mmHg 45%
16:00 +17°C° 0 mm 3 m/s 755 mmHg 48%
17:00 +17°C° 0 mm 3 m/s 755 mmHg 50%
18:00 +14°C° 0 mm 3 m/s 756 mmHg 54%
19:00 +14°C° 0 mm 2 m/s 756 mmHg 58%
20:00 +13°C° 0 mm 2 m/s 756 mmHg 62%
21:00 +13°C° 0 mm 2 m/s 757 mmHg 64%
22:00 +12°C° 0 mm 2 m/s 757 mmHg 67%
23:00 +12°C° 0 mm 2 m/s 757 mmHg 69%

22 Abril, Quinta-feira

Tempo Temperatura Precipitação Vento Pressão Humidade
00:00 +12°C° 0 mm 2 m/s 757 mmHg 70%
01:00 +10°C° 0 mm 2 m/s 757 mmHg 71%
02:00 +10°C° 0 mm 2 m/s 757 mmHg 72%
03:00 +10°C° 0 mm 2 m/s 757 mmHg 73%
04:00 +9°C° 0 mm 2 m/s 758 mmHg 74%
05:00 +9°C° 0 mm 2 m/s 758 mmHg 75%
06:00 +12°C° 0 mm 2 m/s 758 mmHg 70%
07:00 +12°C° 0 mm 3 m/s 758 mmHg 65%
08:00 +14°C° 0 mm 3 m/s 759 mmHg 60%
09:00 +15°C° 0 mm 4 m/s 759 mmHg 54%
10:00 +18°C° 0 mm 4 m/s 759 mmHg 48%
11:00 +19°C° 0 mm 4 m/s 759 mmHg 42%
12:00 +20°C° 0 mm 4 m/s 759 mmHg 40%
13:00 +20°C° 0 mm 4 m/s 759 mmHg 39%
14:00 +21°C° 0 mm 5 m/s 758 mmHg 37%
15:00 +20°C° 0 mm 5 m/s 758 mmHg 41%
16:00 +20°C° 0 mm 5 m/s 758 mmHg 45%
17:00 +19°C° 0 mm 5 m/s 758 mmHg 49%
18:00 +17°C° 0 mm 5 m/s 758 mmHg 56%
19:00 +15°C° 0 mm 5 m/s 759 mmHg 64%
20:00 +13°C° 0 mm 5 m/s 759 mmHg 72%
21:00 +12°C° 0 mm 5 m/s 759 mmHg 74%
22:00 +10°C° 0 mm 5 m/s 759 mmHg 76%
23:00 +11°C° 0 mm 4 m/s 759 mmHg 78%
Mostrar mais

Necessitamos do seu Consentimento

A Meteoprog e os seus Fornecedores de Serviços podem armazenar e aceder a dados pessoais como cookies, identificadores do dispositivo ou outras tecnologias semelhantes existentes no seu dispositivo e processar estes dados para personalizar conteúdos e anúncios, assim como funcionalidades nas redes sociais e análise de tráfego.

  • Armazenar e/ou aceder a informações no seu dispositivo

    Os cookies, identificadores do dispositivo ou outras informações podem ser armazenados ou acedidos no seu dispositivo, para os fins acima indicados.

  • Anúncios e conteúdos personalizados, medição de anúncios e conteúdos, dados sobre o público-alvo e desenvolvimento de produtos

    Os anúncios e os conteúdos podem ser personalizados com base num perfil. Podem ser adicionados dados adicionais para uma maior personalização dos anúncios e dos conteúdos. A eficácia dos anúncios e dos conteúdos pode ser medida. Podem ser obtidas informações sobre o público que visualizou os anúncios e os conteúdos. Estes dados podem ser usados para desenvolver ou melhorar sistemas, softwares ou a experiência do utilizador.

Ao clicar em "Eu concordo”, permitirá o uso de cookies, identificadores do dispositivo e web beacons mencionados ou outras tecnologias semelhantes. As configurações do navegador do seu dispositivo podem ser alteradas.

Para certos fins, podem ser invocados interesses legítimos ao invés de consentimento. Pode ler mais informação sobre este assunto na nossa Política de Privacidade e Cookies.